COSMOS 252 DEB, 19294

Orbit data source: Space-Track

COSMOS 252 DEB, 19294 is space debris in LEO originally from a launch on Fri, 01 Nov 1968 UTC launched from the Tyuratam Missile And Space Complex (TTMTR). Debris objects in space refer to the collection of defunct objects orbiting the Earth. Examples of debris include non-operational satellites, rocket bodies, and fragments generated from explosions, collisions, or faulty payload assembly.

Loading next visibility...
Identifier
19294, 1968-097EE
Orbit
LEO
Country
Flag of CISCIS
Related business
Manufacturer
Unknown
Mission
Spacecraft
Bus & Motor
Unknown
Mass
Unknown
Launch date (UTC)
1968-11-01 (57 years ago)
Launch vehicle
Unknown
Launch site
Tyuratam Missile And Space Complex (TTMTR)
Object type
Payload
Rocket body
Debris
Shape & HBR
Unknown shape, 0.1 m
Radar Cross Section
Small (<0.1 m²)

Expand to show TLE details & history
Last TLE update: 11 hours ago

TLE from 11 hours ago
0 COSMOS 252 DEB
1 19294U 68097EE  26112.02033219  .00001887  00000-0  20252-2 0  9994
2 19294  62.2415 114.9582 0618275 305.6492  48.8422 13.14018144797890
Epoch: 2026-04-22T00:29Z
TLE epoch observation values (Epoch: 2026-04-22T00:29:16.701Z)
Latitude
-0.00002°
Longitude
-102.44916°
Altitude
918.096 km
Speed
7.534 km/s
True Right ascension
07h 39m 49s
True Declination
0° 00' 00"
Sunlit
Object was in daylight at epoch
Visualization orbit readout
Latitude
Unknown
Longitude
Unknown
Altitude
Unknown
Speed
Unknown
Apparent Right ascension
Unknown
Apparent Declination
Unknown
Sunlit
N/A
Visualization observer readout
Local Sidereal Time
18:25:22
Azimuth
Unknown
Elevation
Unknown
Doppler factor
Unknown
Orbital elements
Apogee altitude
1,675.588 km
Perigee altitude
737.692 km
Semi-major axis
7,584.777 km
Eccentricity
0.06183
Inclination
62.2415°
RAAN
114.9582°
Arg. of periapsis
305.6492°
True anomaly
54.4526°
Mean anomaly
48.8422°
Eccentric anomaly
51.61913°
Mean motion
3.28571 °/min
Orbital period
109.57 mins
BSTAR
0.0020252
Loading maneuver chart data...
Computing Atmospheric mass density...

Documentation

Showing up to 5 results
|